Regional Weather Roundup
Issued by NWS

Home | Current Version | Previous Version | Graphics & Text | Print | Product List | Glossary On
Versions: 1 2 3 4 5 6 7 8 9 10 11 12 13 14 15 16 17 18 19 20 21 22 23 24 25 26 27 28 29 30 31 32 33 34 35 36 37 38 39 40 41 42 43 44 45 46 47 48 49 50
000
ASUS43 KMPX 271610
RWRMN
WEATHER ROUNDUP FOR MINNESOTA
NATIONAL WEATHER SERVICE TWIN CITIES/CHANHASSEN MN
1100 AM CDT MON JUL 27 2015


NOTE: "FAIR" INDICATES FEW OR NO CLOUDS BELOW 12,000 FEET WITH NO
SIGNIFICANT WEATHER AND/OR OBSTRUCTIONS TO VISIBILITY. N/A MEANS
CURRENT SKY AND/OR WEATHER CONDITIONS ARE NOT AVAILABLE.

MNZ060>063-068>070-271700-
   Twin Cities Metro

CITY           SKY/WX    TMP DP  RH WIND       PRES   REMARKS
TWIN CITIES    PTSUNNY   82  71  69 SE9       29.97S
ST PAUL        MOSUNNY   81  72  74 S9        29.97F
CRYSTAL        MOSUNNY   82  71  69 SE10      29.96S
BLAINE         PTSUNNY   82  73  74 SE10      29.97F
LAKEVILLE      PTSUNNY   79  72  78 SE5       29.98S
EDEN PRAIRIE   CLOUDY    81  72  74 SE9       29.96S
SOUTH ST PAUL  MOSUNNY   80  70  70 SE8       29.97F
LAKE ELMO      PTSUNNY   81  72  74 SE8       29.99F
$$
MNZ001>005-007-008-013>017-022>024-027-028-271700-
   Northwest Minnesota

CITY           SKY/WX    TMP DP  RH WIND       PRES   REMARKS
BEMIDJI        PTSUNNY   81  69  65 SE10      29.93F
HALLOCK        PTSUNNY   81  72  74 SE6       29.88R
ROSEAU         PTSUNNY   82  72  69 SE6       29.91S
WARROAD        PTSUNNY   82  72  69 SE5       29.92F
THIEF RVR FALL PTSUNNY   79  72  78 SE10      29.90S
CROOKSTON      PTSUNNY   81  72  74 S10       29.88S
FOSSTON        MOSUNNY   81  70  69 SE8       29.91S
DETROIT LAKES  SUNNY     79  70  73 SE13      29.93R
MOORHEAD       MOSUNNY   81  72  74 SE9       29.88R
PARK RAPIDS    CLOUDY    79  70  74 SE13      29.93F
MAHNOMEN       FAIR      80  70  72 SE9G17    29.90S
$$
MNZ006-009>011-018-025>026-271700-
   North Central Minnesota

CITY           SKY/WX    TMP DP  RH WIND       PRES   REMARKS
BAUDETTE       MOSUNNY   82  68  62 S5        29.93F
FLAG ISLAND    SUNNY     77  72  83 S8        29.92S
INTL FALLS     SUNNY     82  67  60 SE7       29.97S
WASKISH        MOSUNNY   82  70  65 SE7       29.94F
BIG FORK       SUNNY     82  68  61 SE7       29.98S
LONGVILLE      PTSUNNY   81  70  69 SE5       29.96F
GRAND RAPIDS   SUNNY     81  64  57 SE12      29.99S
CRANE LAKE     SUNNY     79  68  69 SW3       30.00S
ORR            SUNNY     82  64  54 S5        29.97S
COOK           SUNNY     81  66  61 SE5       30.00S
WALKER         PTSUNNY   78  70  75 SE7       29.94F
$$
MNZ012-019>021-037-271700-
   Northeast Minnesota

CITY           SKY/WX    TMP DP  RH WIND       PRES   REMARKS
DULUTH         MOSUNNY   80  65  59 S12       30.01F
ELY            SUNNY     81  63  54 S5        30.01F
HIBBING        SUNNY     81  65  58 SE10      30.00F
EVELETH        MOSUNNY   81  64  57 SW3       30.01F
DULUTH HARBOR  SUNNY     73  70  88 NE9       29.99F
TWO HARBORS    SUNNY     82  72  69 S6        30.00S
SILVER BAY     SUNNY     82  66  57 SE8       30.00S
GRAND MARAIS     N/A     61  56  83 SW8       29.99S
G MARAIS ARPRT MOSUNNY   82  64  54 S5        30.06S
$$
MNZ029>031-032-039>041-046>048-054>057-064-271700-
   West Central Minnesota

CITY           SKY/WX    TMP DP  RH WIND       PRES   REMARKS
FERGUS FALLS   MOSUNNY   79  70  73 SE10      29.87S
WHEATON        MOSUNNY   77  72  83 SE14      29.89R
MORRIS         MOSUNNY   81  75  83 SE16      29.87F
ALEXANDRIA     MOSUNNY   79  72  79 SE13      29.93F
ELBOW LAKE     FAIR      80  73  79 SE12G18   29.88F
WADENA         PTSUNNY   79  70  73 SE12      29.93R
GLENWOOD       PTSUNNY   79  72  78 SE12      29.93S
APPLETON       MOSUNNY  N/A N/A N/A SE12      29.88S
BENSON         MOSUNNY   81  72  74 S9        29.90S
ORTONVILLE     PTSUNNY   77  72  83 SE12      29.87S
MADISON        MOSUNNY   79  73  83 SE12      29.88F
WILLMAR        FAIR      81  75  83 SE14      29.92F
$$
MNZ033>034-036-042>043-049>051-058-059-271700-
   Central Minnesota

CITY           SKY/WX    TMP DP  RH WIND       PRES   REMARKS
ST CLOUD       PTSUNNY   80  72  76 SE9       29.95F
SAUK CENTRE    CLOUDY    77  73  86 SE10      29.94S
PAYNESVILLE    PTSUNNY   75  71  87 E10       29.94F
AITKIN         SUNNY     82  70  65 S8        29.96F
PINE RIVER     PTSUNNY   79  70  73 SE9       29.98F
BRAINERD       MOSUNNY   81  71  71 SE7       29.95F
STAPLES        MOSUNNY   79  70  73 SE10      29.94S
LONG PRAIRIE   CLOUDY    75  72  88 E8        29.94S
LITTLE FALLS   PTSUNNY   79  70  73 SE10      29.94F
LITCHFIELD     PTSUNNY   81  75  83 SE10      29.94F
BUFFALO        PTSUNNY   80  71  72 SE7       29.97F
MAPLE LAKE     MOSUNNY   81  73  78 E5        29.97S
$$
MNZ037-044-045-052-053-271700-
   East Central Minnesota

CITY           SKY/WX    TMP DP  RH WIND       PRES   REMARKS
PRINCETON      MOSUNNY   82  72  69 SE8       29.97S
MORA           MOSUNNY   79  68  69 S7        30.00S
CAMBRIDGE      MOSUNNY   82  68  61 SE7       29.96S
RUSH CITY      PTSUNNY   80  71  74 S6        29.99S
MOOSE LAKE     PTSUNNY   81  68  65 SE6       29.98F
HINCKLEY       PTSUNNY   79  70  73 S6        29.99F
CLOQUET        SUNNY     79  64  61 S8        30.01S
MCGREGOR       MOSUNNY   79  68  69 S8        29.99F
$$
MNZ071>073-080-081-089-090-097-098-271700-
   Southwest Minnesota

CITY           SKY/WX    TMP DP  RH WIND       PRES   REMARKS
MONTEVIDEO     MOSUNNY   81  73  78 S10       29.91S
GRANITE FALLS  CLOUDY    77  73  89 SE13      29.92S
CANBY          PTSUNNY   79  73  84 SE10      29.89F
MARSHALL       CLOUDY    75  72  88 SE14      29.91F
REDWOOD FALLS  CLOUDY    76  72  87 SE13      29.91F
OLIVIA         CLOUDY    75  70  83 SE10      29.91F
PIPESTONE      PTSUNNY   81  75  83 SE9       29.89F
WINDOM         CLOUDY    75  72  88 SE12      29.93F
WORTHINGTON    CLOUDY    75  70  83 E8        29.92S
JACKSON        CLOUDY    75  73  94 E10       29.93F FOG
TRACY          CLOUDY    75  73  94 SE10      29.91F
SLAYTON        CLOUDY    74  74 100 SE10G16   29.92F FOG
$$
MNZ065>067-074>077-082>085-091>093-271700-
   South Central Minnesota

CITY           SKY/WX    TMP DP  RH WIND       PRES   REMARKS
MANKATO        CLOUDY    75  72  88 SE10      29.96F
NEW ULM        CLOUDY    75  73  94 SE9       29.94F
ST JAMES       CLOUDY    79  75  89 E8        29.95F
FAIRMONT       CLOUDY    73  68  83 SE10      29.95F
GLENCOE        CLOUDY    78  74  87 E9        29.95F
FARIBAULT      PTSUNNY   79  73  83 SE9       29.99R
OWATONNA       PTSUNNY   79  72  78 SE8       29.99F
WASECA         CLOUDY    77  72  83 E9        29.99F
ALBERT LEA     CLOUDY    75  73  94 SE7       29.99S FOG
$$
MNZ078>079-086>088-094>096-271700-
   Southeast Minnesota

CITY           SKY/WX    TMP DP  RH WIND       PRES   REMARKS
ROCHESTER      PTSUNNY   77  71  82 SE9       30.02R
RED WING       PTSUNNY   81  70  69 SE8       29.98S
STANTON        PTSUNNY   81  71  73 SE6       29.98R
DODGE CENTER   CLOUDY    75  72  88 SE8       30.01S
WINONA         PTSUNNY   79  68  69 E6        30.00F
AUSTIN         PTSUNNY   79  73  83 SE6       30.00S
PRESTON        MOSUNNY   78  68  70 SE8       30.02S
$$
ABBREVIATIONS USED IN REMARKS
   TC - TEMPERATURES IN CELSIUS
  WCI - WIND CHILL INDEX
   HX - HEAT INDEX
  VSB - VISIBILITY
$$



USA.gov is the U.S. government's official web portal to all federal, state and local government web resources and services.